Regional Weather Roundup
Issued by NWS

Home | Current Version | Previous Version | Text Only | Print | Product List | Glossary Off
Versions: 1 2 3 4 5 6 7 8 9 10 11 12 13 14 15 16 17 18 19 20 21 22 23 24 25 26 27 28 29 30 31 32 33 34 35 36 37 38 39 40 41 42 43 44 45 46 47 48 49 50

000
ASUS43 KLSX 040210
RWRMO

WEATHER SUMMARY FOR MISSOURI
NATIONAL WEATHER SERVICE SPRINGFIELD MO
900 PM CDT MON AUG 03 2015

NOTE: "FAIR" INDICATES FEW OR NO CLOUDS BELOW 12,000 FEET WITH NO
       SIGNIFICANT WEATHER AND/OR OBSTRUCTIONS TO VISIBILITY.
       CURRENT SKY AND/OR WEATHER CONDITIONS ARE NOT AVAILABLE FOR
       CHILLICOTHE AND FARMINGTON.

MOZ001>031-035>038-043-044-053-054-040300-
...NORTHERN AND WESTERN MISSOURI...

CITY           SKY/WX    TMP DP  RH WIND       PRES   REMARKS
KANSAS CTY INT PTCLDY    79  71  76 E10       29.92R
KANSAS C DTWN  PTCLDY    81  70  69 E8        29.90R
LEE`S SUMMIT   PTCLDY    80  70  71 E10       29.92R
ST JOSEPH      MOCLDY    77  68  73 E7        29.92R
CHILLICOTHE      N/A     75  71  87 CALM      29.95R
KIRKSVILLE     MOCLDY    70  67  90 CALM      29.96R

$$
MOZ066>068-077>081-088>096-101>105-040300-
...SOUTHWEST MISSOURI...

CITY           SKY/WX    TMP DP  RH WIND       PRES   REMARKS
SPRINGFIELD    PTCLDY    79  67  66 SW6       29.95R
JOPLIN         PTCLDY    80  64  58 S7        29.94S

$$
MOZ032>034-039>042-045>050-055>058-069>072-040300-
...CENTRAL MISSOURI...

CITY           SKY/WX    TMP DP  RH WIND       PRES   REMARKS
COLUMBIA       CLEAR     80  72  76 N3        29.93R
JEFFERSON CITY CLEAR     79  72  79 CALM      29.91R
ROLLA          CLEAR     76  70  82 CALM      29.93R
SEDALIA        PTCLDY    81  73  76 NE3       29.93R
WHITEMAN AFB   PTCLDY    79  73  80 NE5       29.90S
WARRENSBURG    PTCLDY    77  70  78 N5        29.91R
OSAGE BEACH    CLEAR     77  72  83 CALM      29.93R

$$
MOZ051-052-059>065-040300-
...EAST CENTRAL MISSOURI...

CITY           SKY/WX    TMP DP  RH WIND       PRES   REMARKS
ST LOUIS INTL  MOCLDY    84  67  56 N3        29.92R
SPIRIT OF STL  CLEAR     78  73  84 CALM      29.90R
ST CHARLES     CLEAR     80  70  71 CALM      29.90R

$$
MOZ072>076-082>087-097>100-106>115-040300-
...SOUTH CENTRAL AND SOUTHEAST MISSOURI...

CITY           SKY/WX    TMP DP  RH WIND       PRES   REMARKS
CAPE GIRARDEAU CLEAR     80  75  84 CALM      29.90R
FARMINGTON     CLEAR     79  73  83 CALM      29.97S
POPLAR BLUFF   PTCLDY    82  76  81 CALM      29.90R
WEST PLAINS    PTCLDY    78  71  79 CALM      29.97S

$$



USA.gov is the U.S. government's official web portal to all federal, state and local government web resources and services.